User: anonymous   Login
Location: Theydon Bois
(51.6750°N, 0.1050°E)
Time: 02:41:32
(UTC+01:00)
Language:

SL-16 R/B - Orbit

View from above orbital plane
View from above orbital plane
View from above satellite
View from above satellite

Ground track
Ground track

The orbit data is extracted from the following two-line orbital elements,

1 31793U 07029B   17291.85524806 -.00000278  00000-0 -12022-3 0  9998
2 31793  70.9736 129.3968 0002878 277.9270 171.3804 14.14388860532203
Epoch (UTC): 18 October 2017 20:31:33
Eccentricity: 0.0002878
inclination: 70.9736°
perigee height: 842 km
apogee height: 846 km
right ascension of ascending node: 129.3968°
argument of perigee: 277.9270°
revolutions per day: 14.14388860
mean anomaly at epoch: 171.3804°
orbit number at epoch: 53220

The dashed part of the orbit path shows where the satellite is in the earth's shadow,  

DLR